TimeEST,TemperatureF,Dew PointF,Humidity,Sea Level PressureIn,VisibilityMPH,Wind Direction,Wind SpeedMPH,Gust SpeedMPH,PrecipitationIn,Events,Conditions,WindDirDegrees,DateUTC
12:15 AM,38.1,33.8,84,29.56,10.0,West,17.3,38.0,N/A,,Overcast,280,2013-01-31 05:15:00
12:35 AM,37.4,32.5,83,29.59,10.0,West,19.6,32.2,N/A,,Overcast,280,2013-01-31 05:35:00
12:55 AM,37.4,32.0,81,29.60,10.0,West,12.7,26.5,N/A,,Overcast,280,2013-01-31 05:55:00
1:15 AM,36.7,30.0,77,29.62,10.0,WNW,19.6,33.4,N/A,,Overcast,290,2013-01-31 06:15:00
1:35 AM,36.0,28.0,73,29.63,10.0,West,17.3,31.1,N/A,,Mostly Cloudy,270,2013-01-31 06:35:00
1:55 AM,35.6,27.5,72,29.65,10.0,West,18.4,28.8,N/A,,Overcast,280,2013-01-31 06:55:00
2:15 AM,34.3,25.7,71,29.68,10.0,West,16.1,33.4,N/A,,Overcast,270,2013-01-31 07:15:00
2:35 AM,34.2,23.7,66,29.68,10.0,West,15.0,26.5,N/A,,Overcast,270,2013-01-31 07:35:00
2:55 AM,33.6,24.6,70,29.69,10.0,WNW,13.8,27.6,N/A,,Overcast,290,2013-01-31 07:55:00
3:15 AM,32.9,25.0,73,29.71,10.0,West,17.3,32.2,N/A,,Overcast,280,2013-01-31 08:15:00
3:35 AM,32.5,23.0,68,29.72,10.0,West,18.4,28.8,N/A,,Overcast,280,2013-01-31 08:35:00
3:55 AM,32.4,23.9,71,29.73,10.0,West,13.8,23.0,N/A,,Overcast,270,2013-01-31 08:55:00
4:15 AM,32.0,24.4,74,29.73,10.0,West,20.7,28.8,N/A,,Overcast,260,2013-01-31 09:15:00
4:35 AM,32.0,24.1,73,29.74,10.0,West,6.9,21.9,N/A,,Overcast,270,2013-01-31 09:35:00
4:55 AM,32.0,23.9,72,29.75,10.0,West,13.8,31.1,N/A,Snow,Light Snow,260,2013-01-31 09:55:00
5:15 AM,32.0,22.5,68,29.76,10.0,West,11.5,25.3,N/A,,Overcast,280,2013-01-31 10:15:00
5:35 AM,32.0,22.5,68,29.77,10.0,West,13.8,33.4,N/A,,Overcast,270,2013-01-31 10:35:00
5:55 AM,31.8,20.7,63,29.78,10.0,West,18.4,29.9,N/A,,Overcast,260,2013-01-31 10:55:00
6:15 AM,31.1,20.1,64,29.79,10.0,West,15.0,28.8,N/A,,Overcast,280,2013-01-31 11:15:00
6:35 AM,30.9,19.6,63,29.79,10.0,WNW,11.5,21.9,N/A,,Overcast,290,2013-01-31 11:35:00
7:15 AM,30.2,16.9,58,29.82,10.0,West,15.0,29.9,N/A,,Overcast,280,2013-01-31 12:15:00
7:55 AM,29.8,17.8,61,29.85,10.0,West,16.1,23.0,N/A,,Overcast,280,2013-01-31 12:55:00
8:15 AM,29.7,18.5,63,29.85,10.0,West,12.7,17.3,N/A,,Overcast,280,2013-01-31 13:15:00
8:35 AM,29.3,19.4,67,29.87,7.0,West,11.5,20.7,N/A,Snow,Light Snow,270,2013-01-31 13:35:00
8:55 AM,28.8,21.6,74,29.88,5.0,West,11.5,17.3,N/A,Snow,Light Snow,260,2013-01-31 13:55:00
9:15 AM,29.1,21.7,74,29.89,7.0,West,18.4,24.2,N/A,Snow,Light Snow,260,2013-01-31 14:15:00
9:35 AM,29.7,20.3,68,29.90,10.0,West,18.4,23.0,N/A,,Overcast,260,2013-01-31 14:35:00
9:55 AM,29.7,20.8,70,29.91,10.0,West,17.3,24.2,N/A,Snow,Light Snow,260,2013-01-31 14:55:00
10:15 AM,30.0,21.0,69,29.91,10.0,WSW,11.5,20.7,N/A,,Overcast,250,2013-01-31 15:15:00
10:35 AM,30.6,20.1,65,29.92,10.0,West,18.4,25.3,N/A,,Overcast,260,2013-01-31 15:35:00
10:55 AM,30.7,20.3,65,29.93,10.0,West,8.1,19.6,N/A,,Overcast,260,2013-01-31 15:55:00
11:15 AM,30.2,20.3,67,29.93,10.0,West,11.5,21.9,N/A,Snow,Light Snow,260,2013-01-31 16:15:00
11:35 AM,30.6,21.0,68,29.93,10.0,West,10.4,16.1,N/A,Snow,Light Snow,260,2013-01-31 16:35:00
11:55 AM,30.7,21.4,68,29.93,10.0,West,9.2,16.1,N/A,Snow,Light Snow,270,2013-01-31 16:55:00
12:15 PM,29.1,23.9,81,29.93,10.0,WNW,10.4,-,N/A,,Overcast,290,2013-01-31 17:15:00
12:35 PM,30.0,23.9,78,29.94,7.0,WNW,8.1,-,N/A,Snow,Light Snow,290,2013-01-31 17:35:00
12:55 PM,28.6,23.9,83,29.93,1.8,West,11.5,21.9,N/A,Snow,Light Snow,280,2013-01-31 17:55:00
1:15 PM,29.3,24.3,81,29.93,5.0,West,8.1,20.7,N/A,Snow,Light Snow,270,2013-01-31 18:15:00
1:35 PM,28.6,25.3,88,29.94,0.8,West,15.0,21.9,N/A,Snow,Snow,270,2013-01-31 18:35:00
1:55 PM,28.4,26.2,92,29.94,1.2,West,8.1,-,N/A,Snow,Light Snow,270,2013-01-31 18:55:00
2:15 PM,30.9,25.5,80,29.94,10.0,WSW,11.5,19.6,N/A,,Mostly Cloudy,250,2013-01-31 19:15:00
2:35 PM,30.9,22.8,72,29.94,7.0,West,15.0,24.2,N/A,Snow,Light Snow,280,2013-01-31 19:35:00
2:55 PM,32.5,23.0,68,29.94,10.0,West,8.1,-,N/A,,Overcast,260,2013-01-31 19:55:00
3:15 PM,32.2,20.8,63,29.94,10.0,WSW,10.4,17.3,N/A,,Overcast,250,2013-01-31 20:15:00
3:35 PM,32.0,20.1,62,29.93,10.0,West,11.5,20.7,N/A,,Overcast,260,2013-01-31 20:35:00
3:55 PM,32.0,20.1,62,29.94,10.0,West,10.4,18.4,N/A,,Overcast,270,2013-01-31 20:55:00
4:15 PM,32.0,20.1,62,29.94,10.0,WSW,15.0,19.6,N/A,,Overcast,250,2013-01-31 21:15:00
4:35 PM,32.0,19.8,61,29.95,10.0,West,9.2,17.3,N/A,,Overcast,260,2013-01-31 21:35:00
4:55 PM,32.0,20.1,62,29.95,10.0,WSW,8.1,17.3,N/A,,Overcast,250,2013-01-31 21:55:00
5:15 PM,32.0,20.3,62,29.94,10.0,WSW,8.1,16.1,N/A,,Overcast,250,2013-01-31 22:15:00
5:35 PM,32.0,20.7,63,29.94,10.0,West,5.8,-,N/A,,Overcast,270,2013-01-31 22:35:00
5:55 PM,32.0,21.0,64,29.93,10.0,WSW,8.1,-,N/A,,Overcast,240,2013-01-31 22:55:00
6:15 PM,32.0,20.8,63,29.93,10.0,WSW,5.8,-,N/A,,Overcast,240,2013-01-31 23:15:00
6:35 PM,32.0,21.4,65,29.93,10.0,WSW,6.9,-,N/A,,Overcast,250,2013-01-31 23:35:00
7:15 PM,32.0,22.1,67,29.93,10.0,WSW,4.6,-,N/A,,Overcast,240,2013-02-01 00:15:00
7:35 PM,32.0,22.3,67,29.93,10.0,SW,4.6,-,N/A,,Overcast,230,2013-02-01 00:35:00
7:55 PM,32.0,22.5,68,29.93,10.0,SW,4.6,-,N/A,,Overcast,230,2013-02-01 00:55:00
8:15 PM,32.0,22.6,68,29.92,10.0,SW,4.6,-,N/A,,Overcast,230,2013-02-01 01:15:00
8:35 PM,32.4,22.5,67,29.93,10.0,WSW,8.1,-,N/A,,Overcast,240,2013-02-01 01:35:00
8:55 PM,32.9,22.6,66,29.92,10.0,WSW,6.9,-,N/A,,Overcast,240,2013-02-01 01:55:00
9:15 PM,33.3,22.8,66,29.91,10.0,WSW,8.1,-,N/A,,Overcast,240,2013-02-01 02:15:00
9:35 PM,33.8,23.9,67,29.92,10.0,WSW,11.5,19.6,N/A,,Overcast,250,2013-02-01 02:35:00
9:55 PM,32.9,25.9,75,29.91,7.0,WSW,6.9,-,N/A,Snow,Light Snow,240,2013-02-01 02:55:00
10:15 PM,32.0,28.4,87,29.89,3.0,WSW,10.4,-,N/A,Snow,Light Snow,240,2013-02-01 03:15:00
10:35 PM,31.6,29.7,92,29.90,2.5,WSW,5.8,-,N/A,Snow,Light Snow,240,2013-02-01 03:35:00
10:55 PM,31.1,30.0,96,29.89,1.5,SW,6.9,-,N/A,Snow,Light Snow,220,2013-02-01 03:55:00
11:15 PM,31.1,30.2,96,29.87,2.5,SW,5.8,-,N/A,Snow,Light Snow,230,2013-02-01 04:15:00
11:35 PM,31.5,30.7,97,29.87,2.5,SW,8.1,-,N/A,Snow,Light Snow,230,2013-02-01 04:35:00